Dewpoint
73 73 73 68 57 55 52 50 56 57 57 60 57 58 56 61 58 52 67 68 70 72 73 73 75 74 73 73 73 73 73 73 73 73 73 72 72 72 72 72 72 72 72 72 72 71 71 71 72
71 69 66 62 52 48 50 56 53 57 58 61 60 62 60 61 65 66 67 69 72 73 73 73 75 75 73 74 74 73 73 73 73 73 73 72 72 72 71 71 72 73 73 73 72 72 71 71 71
67 68 61 56 54 49 50 57 56 59 59 57 58 62 62 63 65 66 69 70 72 72 73 73 75 75 74 74 74 74 73 73 73 73 73 73 73 73 72 72 72 72 73 72 73 72 72 71 71
67 65 62 54 51 55 54 56 57 57 57 59 59 61 64 66 65 68 69 72 72 73 73 74 74 74 74 74 74 74 74 74 73 73 73 73 73 73 73 73 73 73 73 72 73 73 72 71 71
68 63 54 51 52 55 56 58 58 57 56 58 59 61 62 66 68 69 70 72 72 72 73 73 75 75 74 74 74 74 74 73 73 73 73 73 73 73 73 73 73 73 72 72 73 73 73 72 73
61 59 50 49 53 56 55 58 59 58 59 57 60 62 63 68 68 69 70 71 72 72 73 74 75 75 75 75 74 74 74 73 74 73 74 73 74 73 73 73 73 73 72 72 72 73 73 73 72
58 53 51 52 53 54 53 58 59 57 58 57 61 59 62 67 68 69 70 71 72 73 73 73 72 73 74 74 74 74 74 74 74 74 74 74 74 74 73 73 73 73 72 72 72 72 72 73 72
61 57 53 54 54 52 56 58 59 59 58 59 60 59 60 65 68 69 70 70 72 73 73 72 72 72 73 73 74 74 74 74 74 74 74 75 74 73 73 73 73 73 72 73 73 73 73 73 73
64 53 50 51 53 52 55 57 60 60 59 59 60 60 63 66 68 69 70 70 71 72 72 72 72 72 72 71 72 75 75 75 74 74 74 73 73 73 73 73 72 72 72 73 73 73 73 73 73
56 51 50 53 53 53 56 58 59 59 57 58 61 64 65 66 68 68 68 67 69 70 71 72 71 72 72 71 70 72 73 73 74 74 74 73 72 73 73 73 73 74 73 73 73 73 73 72 74
57 52 53 54 55 54 56 58 59 58 56 58 60 63 64 66 67 67 68 68 68 70 71 71 71 72 72 71 71 70 71 72 71 72 71 72 72 71 73 73 73 73 73 73 73 73 73 73 74
55 55 54 54 55 54 56 57 58 57 57 59 61 63 65 65 66 66 67 68 68 68 70 71 71 71 72 72 72 72 72 72 71 71 72 72 72 71 71 72 72 72 72 71 71 70 72 73 73
55 53 56 52 52 55 54 56 57 58 59 60 62 64 64 65 65 66 67 67 67 66 68 68 70 71 72 72 72 73 72 73 73 72 72 72 72 71 70 71 71 72 71 71 71 70 69 70 71
51 50 51 53 52 55 56 57 57 59 59 62 63 63 64 64 64 65 65 66 65 65 65 66 68 69 71 72 71 73 73 72 72 71 71 71 71 71 70 70 70 70 71 71 71 71 70 69 69
49 49 51 52 54 54 57 55 57 59 58 61 62 63 63 64 64 63 64 64 64 64 64 64 66 68 69 71 71 71 72 72 71 70 70 71 72 71 72 70 69 70 71 71 71 71 71 71 70
47 47 46 52 54 53 54 51 57 59 56 57 60 60 62 62 62 62 62 63 63 63 63 64 65 65 67 69 71 70 71 71 71 71 70 70 71 71 71 70 69 70 70 71 71 71 70 70 70
40 40 44 49 53 52 54 53 55 55 56 54 54 56 59 59 59 59 60 62 62 62 63 64 65 66 66 68 70 70 70 70 70 71 71 71 71 71 71 70 70 71 70 70 70 71 71 71 70
33 36 42 46 51 52 53 53 54 54 56 55 55 54 55 56 56 56 56 60 61 61 63 64 65 66 67 69 70 71 70 70 70 71 71 71 71 71 71 71 71 71 70 70 71 71 71 70 70
34 36 38 47 52 50 50 51 53 55 57 56 55 55 54 54 55 56 55 57 58 60 62 64 64 66 68 69 69 70 70 71 71 71 72 71 71 71 70 70 70 71 70 70 70 70 71 71 71
35 41 46 50 54 51 53 50 54 55 56 58 57 55 55 55 55 56 54 55 56 59 62 64 65 66 67 68 70 70 70 71 71 72 73 72 72 72 71 70 70 71 71 69 70 71 70 70 71
25 40 46 44 52 51 50 48 52 57 57 56 58 56 56 55 55 55 54 54 56 58 61 63 65 66 67 69 70 71 71 73 72 72 73 73 72 72 72 72 72 71 71 71 71 71 71 70 70
18 27 37 50 46 42 49 41 46 52 53 55 56 57 56 56 56 57 53 54 55 57 60 62 65 66 68 69 69 69 70 70 72 72 72 73 72 72 72 71 71 70 71 70 70 71 71 71 69
17 46 48 48 45 42 43 43 44 49 49 50 53 56 57 57 55 56 53 54 56 57 60 62 64 66 68 69 69 69 70 71 72 71 70 71 70 71 71 70 70 70 70 71 71 71 70 71 70
38 40 37 40 39 38 40 39 37 43 43 49 50 53 56 58 57 56 55 55 58 59 59 62 64 66 68 69 69 69 70 70 71 70 70 70 69 70 71 71 71 71 71 71 71 71 70 70 70
34 33 31 35 35 37 40 41 39 41 48 48 48 52 54 56 59 57 57 55 58 61 61 62 64 65 68 69 70 70 70 71 71 70 69 69 68 69 70 71 71 71 71 71 70 70 69 69 68
31 31 18 17 23 27 44 38 36 44 46 49 51 52 57 58 58 57 56 56 58 59 61 61 64 66 68 69 70 71 72 72 71 70 68 68 68 69 71 71 70 71 70 70 69 68 68 68 68
12 16 19 34 37 32 36 41 41 45 47 49 52 52 54 57 58 60 58 56 57 58 59 62 65 66 68 69 70 72 72 71 70 70 69 68 69 70 70 69 69 70 69 69 68 66 65 65 64
10 16 18 25 29 29 32 39 37 41 45 49 50 51 53 56 57 58 59 58 57 58 59 64 66 66 67 71 71 72 72 71 70 70 69 69 70 70 68 68 69 68 68 68 67 66 65 64 62
10 17 18 21 26 23 22 25 40 42 44 46 48 50 50 49 52 54 56 60 59 61 62 63 65 67 69 71 72 72 71 71 70 69 70 70 69 69 68 68 68 68 67 67 66 65 63 62 61
10 8 14 9 10 31 27 27 36 42 44 46 48 47 48 49 50 53 55 58 60 61 63 63 65 68 70 72 72 71 71 70 70 69 70 69 68 69 68 68 67 66 66 66 65 64 61 60 58
Lifted_Index
-2 -2 -2 -2 -1 -1 -1 -1 -2 -2 -2 -2 -2 -2 -3 -3 -3 -2 -2 -3 -4 -4 -5 -5 -5 -4 -4 -4 -4 -4 -4 -4 -4 -4 -3 -3 -3 -2 -2 -2 -3 -3 -3 -3 -3 -3 -3 -3 -3
-1 -2 -1 -1 -1 -1 -1 -1 -2 -2 -2 -2 -3 -3 -3 -3 -3 -3 -3 -3 -4 -5 -5 -5 -5 -5 -4 -4 -4 -4 -4 -4 -4 -4 -4 -3 -3 -3 -2 -2 -3 -3 -3 -4 -4 -3 -3 -3 -3
-1 -1 -1 -1 -1 -1 -2 -2 -2 -2 -2 -3 -3 -4 -4 -4 -3 -3 -3 -4 -5 -5 -5 -5 -5 -5 -5 -4 -4 -4 -4 -4 -4 -4 -4 -3 -3 -3 -3 -3 -3 -3 -4 -4 -4 -4 -4 -4 -3
-1 -1 -1 -1 -2 -2 -2 -2 -2 -2 -2 -2 -3 -3 -3 -4 -3 -3 -4 -4 -5 -5 -5 -5 -5 -5 -5 -5 -5 -5 -4 -4 -4 -4 -4 -4 -3 -3 -3 -3 -3 -3 -4 -4 -4 -4 -4 -4 -4
-1 -1 -1 -1 -2 -2 -2 -2 -2 -2 -2 -3 -3 -3 -3 -3 -3 -3 -4 -5 -5 -5 -5 -5 -5 -5 -5 -5 -5 -5 -5 -4 -4 -4 -4 -4 -3 -3 -3 -3 -3 -4 -3 -4 -4 -4 -4 -4 -4
-0 -0 -1 -1 -2 -2 -2 -2 -2 -2 -2 -2 -2 -2 -3 -3 -3 -4 -4 -5 -5 -5 -5 -5 -6 -6 -5 -5 -5 -5 -5 -4 -4 -4 -4 -4 -4 -3 -3 -3 -3 -3 -3 -3 -4 -4 -4 -4 -4
-0 -0 -1 -1 -2 -2 -2 -2 -2 -2 -2 -2 -2 -2 -3 -3 -3 -3 -4 -4 -5 -5 -5 -5 -5 -5 -5 -5 -5 -5 -5 -5 -5 -5 -4 -4 -4 -4 -4 -3 -3 -3 -3 -3 -3 -4 -4 -4 -4
-1 -0 -1 -1 -2 -1 -2 -2 -2 -2 -2 -2 -2 -2 -2 -3 -3 -3 -4 -4 -5 -5 -5 -5 -5 -5 -5 -5 -5 -5 -5 -5 -5 -5 -4 -4 -4 -4 -4 -3 -3 -3 -3 -3 -3 -4 -4 -4 -4
-1 -1 -1 -1 -2 -1 -2 -2 -2 -2 -2 -2 -2 -2 -2 -3 -3 -3 -4 -4 -5 -5 -5 -5 -5 -5 -5 -5 -5 -5 -5 -5 -5 -5 -4 -4 -4 -3 -3 -3 -3 -3 -3 -4 -4 -4 -4 -4 -4
-1 -1 -1 -2 -2 -2 -2 -2 -2 -2 -2 -2 -2 -2 -2 -3 -3 -3 -4 -4 -4 -4 -5 -5 -5 -5 -4 -4 -4 -4 -5 -5 -5 -5 -4 -4 -3 -3 -3 -3 -3 -3 -4 -4 -4 -3 -3 -3 -3
-1 -1 -1 -2 -2 -2 -1 -1 -2 -2 -2 -2 -2 -2 -2 -3 -3 -3 -3 -4 -4 -4 -4 -4 -4 -4 -4 -4 -3 -3 -4 -4 -4 -4 -4 -3 -2 -2 -3 -3 -3 -3 -3 -3 -3 -3 -3 -3 -3
-1 -1 -1 -2 -2 -2 -2 -1 -2 -2 -2 -2 -2 -2 -2 -2 -3 -3 -3 -3 -3 -3 -3 -3 -3 -3 -4 -3 -3 -3 -3 -3 -3 -3 -3 -3 -2 -2 -2 -3 -3 -3 -2 -2 -2 -2 -2 -2 -2
-0 -0 -1 -1 -2 -2 -2 -2 -2 -2 -2 -2 -2 -2 -2 -2 -3 -3 -3 -3 -2 -2 -2 -2 -2 -3 -3 -3 -3 -3 -3 -3 -3 -3 -3 -3 -3 -2 -2 -2 -2 -2 -2 -1 -1 -1 -1 -1 -1
-0 -0 -0 -1 -2 -2 -2 -2 -2 -2 -2 -2 -2 -2 -2 -2 -2 -2 -2 -2 -2 -1 -1 -1 -1 -2 -2 -3 -3 -3 -4 -4 -3 -3 -3 -3 -2 -2 -2 -2 -2 -1 -1 -1 -1 -1 -1 -1 -1
-0 -0 -0 -1 -1 -2 -2 -2 -2 -2 -2 -2 -2 -2 -2 -2 -2 -2 -2 -2 -1 -1 -0 -0 -1 -1 -2 -3 -3 -3 -4 -3 -3 -2 -2 -2 -2 -2 -2 -2 -2 -1 -1 -1 -1 -1 -1 -1 -1
0 0 -0 -1 -1 -2 -2 -2 -2 -2 -2 -2 -2 -2 -2 -2 -2 -1 -1 -1 -0 0 0 -0 -1 -1 -2 -2 -3 -3 -3 -3 -3 -2 -2 -2 -2 -2 -2 -2 -2 -1 -1 -1 -1 -1 -1 -2 -2
1 1 0 -0 -1 -2 -2 -2 -3 -3 -2 -2 -1 -1 -1 -1 -1 -1 -1 -1 -0 0 0 -0 -1 -1 -2 -2 -2 -3 -3 -3 -3 -3 -3 -3 -2 -2 -2 -2 -2 -2 -1 -1 -1 -2 -2 -2 -2
1 2 1 0 -1 -1 -2 -2 -2 -3 -2 -2 -1 -1 -1 -1 -1 -1 -1 -1 -0 -0 -0 -0 -1 -1 -2 -2 -2 -3 -3 -3 -3 -3 -3 -3 -3 -3 -3 -3 -2 -2 -1 -1 -2 -2 -3 -3 -3
2 2 2 0 -1 -1 -1 -1 -2 -2 -2 -2 -1 -1 -0 -0 -0 -0 -0 -0 -0 -0 -0 -1 -1 -1 -2 -2 -3 -3 -3 -3 -3 -3 -4 -4 -4 -4 -3 -3 -2 -2 -1 -1 -2 -2 -3 -3 -3
2 2 2 0 -1 -1 -1 -1 -1 -1 -1 -2 -1 -1 -0 -0 -0 -0 -0 -1 -1 -1 -1 -1 -1 -1 -2 -2 -3 -3 -4 -4 -4 -4 -4 -4 -4 -4 -4 -3 -2 -2 -1 -1 -2 -3 -3 -3 -3
2 2 1 0 -1 -1 -1 -1 -1 -1 -1 -1 -1 -1 -0 -0 -0 -1 -1 -1 -1 -1 -1 -1 -1 -2 -2 -2 -3 -3 -4 -4 -5 -5 -5 -5 -4 -4 -3 -3 -2 -2 -1 -1 -2 -3 -3 -3 -3
2 2 1 0 -0 -0 -0 0 0 -0 -0 -1 -1 -0 -0 -0 -1 -1 -1 -1 -1 -1 -1 -1 -1 -2 -2 -3 -3 -3 -4 -5 -5 -5 -5 -5 -4 -3 -2 -2 -2 -1 -1 -1 -2 -3 -3 -3 -3
1 1 0 -0 0 0 1 1 1 1 0 0 0 -0 -0 -0 -1 -1 -1 -1 -1 -1 -1 -1 -1 -2 -2 -3 -3 -3 -4 -5 -5 -6 -6 -5 -4 -3 -2 -2 -1 -1 -2 -2 -2 -3 -3 -3 -3
2 1 0 -0 0 0 1 1 2 1 1 1 0 0 -0 -0 -1 -1 -1 -1 -1 -1 -1 -1 -1 -2 -2 -3 -3 -4 -4 -5 -5 -6 -5 -4 -3 -3 -2 -2 -2 -2 -2 -2 -2 -2 -2 -2 -2
2 1 1 0 0 1 1 2 2 2 1 1 1 1 0 -1 -1 -2 -2 -2 -2 -2 -1 -1 -1 -2 -2 -3 -4 -4 -4 -5 -5 -6 -5 -4 -3 -3 -3 -3 -3 -2 -2 -2 -2 -1 -1 -1 -1
1 1 1 0 1 2 2 2 2 2 2 1 1 1 0 -1 -2 -2 -2 -2 -2 -2 -2 -2 -1 -2 -2 -3 -4 -4 -5 -5 -6 -6 -5 -4 -3 -3 -3 -3 -2 -2 -2 -1 -1 -0 0 1 1
1 1 1 1 1 2 2 2 2 2 2 2 1 1 -0 -1 -2 -2 -2 -2 -2 -2 -2 -2 -2 -2 -3 -4 -4 -4 -5 -5 -6 -6 -5 -4 -3 -3 -2 -2 -2 -2 -1 -1 -0 1 1 2 2
1 1 0 0 1 1 1 1 1 2 2 2 1 1 0 -0 -1 -1 -1 -2 -2 -2 -2 -2 -2 -2 -3 -4 -5 -5 -5 -6 -6 -6 -5 -4 -3 -2 -2 -1 -2 -2 -1 -1 0 1 2 3 3
1 1 0 0 1 1 1 1 1 2 2 1 1 1 0 -0 -1 -1 -1 -2 -2 -2 -2 -2 -2 -2 -3 -5 -5 -5 -5 -6 -6 -6 -5 -4 -3 -2 -2 -1 -1 -1 -1 -0 1 2 2 3 4
1 1 1 0 1 1 1 1 1 1 1 1 1 1 1 0 -0 -1 -1 -2 -2 -3 -3 -3 -2 -3 -4 -5 -5 -5 -6 -7 -6 -6 -5 -4 -3 -2 -2 -2 -1 -1 -0 0 1 2 3 4 5